Regional Weather Roundup
Issued by NWS

Home | Current Version | Previous Version | Text Only | Print | Product List | Glossary Off
Versions: 1 2 3 4 5 6 7 8 9 10 11 12 13 14 15 16 17 18 19 20 21 22 23 24 25 26 27 28 29 30 31 32 33 34 35 36 37 38 39 40 41 42 43 44 45 46 47 48 49 50

000
ASUS43 KBIS 212110
RWRND

NORTH DAKOTA REGIONAL WEATHER ROUNDUP
NATIONAL WEATHER SERVICE BISMARCK ND
300 PM CST FRI NOV 21 2014

NOTE: "FAIR" INDICATES FEW OR NO CLOUDS BELOW 12,000 FEET WITH NO
SIGNIFICANT WEATHER AND/OR OBSTRUCTIONS TO VISIBILITY.


NDZ001>003-009>011-017-212200-
NORTHWEST NORTH DAKOTA

CITY           SKY/WX    TMP DP  RH WIND       PRES   REMARKS
WILLISTON      SUNNY     46  30  53 W20       29.64R
MINOT          SUNNY     49  27  42 SW22G38   29.56R
MINOT AFB      SUNNY     49  29  47 W25G31    29.55R
$$

NDZ018>021-031>035-040>046-212200-
SOUTHWEST NORTH DAKOTA

CITY           SKY/WX    TMP DP  RH WIND       PRES   REMARKS
BISMARCK       SUNNY     47  31  53 SW8       29.71R
DICKINSON      SUNNY     43  28  55 W13       29.69R
GARRISON         N/A     47  30  51 W18       29.62S
HETTINGER ARPT MOSUNNY   42  29  59 W14       29.75S
$$

NDZ004>008-012>016-024-026-027-054-212200-
NORTHEAST NORTH DAKOTA

CITY           SKY/WX    TMP DP  RH WIND       PRES   REMARKS
GRAND FORKS    PTSUNNY   35  23  61 S21       29.66F
GRND FRKS AFB  PTSUNNY   36  23  58 S21       29.64F
DEVILS LAKE    SUNNY     43  27  52 S16       29.55F
$$

NDZ022-023-025-028>030-036>039-047>053-212200-
SOUTHEAST NORTH DAKOTA

CITY           SKY/WX    TMP DP  RH WIND       PRES   REMARKS
FARGO          PTSUNNY   34  23  64 S20       29.76S
JAMESTOWN      PTSUNNY   39  26  59 SW12      29.68S
$$



USA.gov is the U.S. government's official web portal to all federal, state and local government web resources and services.